• In Hungary
  • List of Countries
  • For 7 days
  • Water Temperature
  • Satellite Maps
  • Weather Map
  • News
  • Weather Widgets
  • user-avatar
    Login

    Hourly Weather Nuwejba

    Today, 25 September, Tuesday

    Time Temperature Precipitation Wind Pressure Humidity
    00:00 +27°C° 0 mm 2 mps 692 mmHg 44%
    01:00 +27°C° 0 mm 2 mps 691 mmHg 46%
    02:00 +26°C° 0 mm 2 mps 691 mmHg 47%
    03:00 +26°C° 0 mm 2 mps 691 mmHg 49%
    04:00 +25°C° 0 mm 2 mps 691 mmHg 50%
    05:00 +25°C° 0 mm 2 mps 691 mmHg 52%
    06:00 +26°C° 0 mm 2 mps 691 mmHg 49%
    07:00 +27°C° 0 mm 2 mps 692 mmHg 45%
    08:00 +29°C° 0 mm 2 mps 692 mmHg 41%
    09:00 +30°C° 0 mm 3 mps 692 mmHg 36%
    10:00 +33°C° 0 mm 3 mps 692 mmHg 30%
    11:00 +35°C° 0 mm 4 mps 693 mmHg 24%
    12:00 +35°C° 0 mm 4 mps 692 mmHg 22%
    13:00 +36°C° 0 mm 4 mps 692 mmHg 20%
    14:00 +37°C° 0 mm 4 mps 692 mmHg 18%
    15:00 +36°C° 0 mm 4 mps 691 mmHg 19%
    16:00 +35°C° 0 mm 4 mps 691 mmHg 21%
    17:00 +34°C° 0 mm 4 mps 691 mmHg 23%
    18:00 +33°C° 0 mm 3 mps 691 mmHg 27%
    19:00 +30°C° 0 mm 3 mps 691 mmHg 31%
    20:00 +29°C° 0 mm 2 mps 691 mmHg 35%
    21:00 +28°C° 0 mm 2 mps 691 mmHg 38%
    22:00 +27°C° 0 mm 2 mps 691 mmHg 41%
    23:00 +27°C° 0 mm 2 mps 691 mmHg 44%

    Tomorrow, 26 September, Wednesday

    Time Temperature Precipitation Wind Pressure Humidity
    00:00 +26°C° 0 mm 2 mps 691 mmHg 47%
    01:00 +25°C° 0 mm 2 mps 690 mmHg 50%
    02:00 +25°C° 0 mm 2 mps 690 mmHg 52%
    03:00 +24°C° 0 mm 2 mps 690 mmHg 54%
    04:00 +24°C° 0 mm 2 mps 690 mmHg 57%
    05:00 +23°C° 0 mm 2 mps 690 mmHg 59%
    06:00 +25°C° 0 mm 2 mps 690 mmHg 54%
    07:00 +26°C° 0 mm 2 mps 691 mmHg 49%
    08:00 +27°C° 0 mm 2 mps 691 mmHg 45%
    09:00 +28°C° 0 mm 3 mps 691 mmHg 38%
    10:00 +30°C° 0 mm 3 mps 691 mmHg 32%
    11:00 +33°C° 0 mm 3 mps 692 mmHg 25%
    12:00 +33°C° 0 mm 3 mps 691 mmHg 23%
    13:00 +34°C° 0 mm 4 mps 691 mmHg 20%
    14:00 +35°C° 0 mm 4 mps 691 mmHg 18%
    15:00 +34°C° 0 mm 4 mps 691 mmHg 19%
    16:00 +33°C° 0 mm 4 mps 690 mmHg 20%
    17:00 +33°C° 0 mm 4 mps 690 mmHg 21%
    18:00 +30°C° 0 mm 3 mps 691 mmHg 24%
    19:00 +29°C° 0 mm 2 mps 691 mmHg 27%
    20:00 +28°C° 0 mm 2 mps 691 mmHg 30%
    21:00 +27°C° 0 mm 2 mps 691 mmHg 33%
    22:00 +27°C° 0 mm 2 mps 691 mmHg 35%
    23:00 +26°C° 0 mm 2 mps 691 mmHg 37%

    Day after tomorrow, 27 September, Thursday

    Time Temperature Precipitation Wind Pressure Humidity
    00:00 +26°C° 0 mm 1 mps 690 mmHg 39%
    01:00 +25°C° 0 mm 1 mps 690 mmHg 41%
    02:00 +25°C° 0 mm 1 mps 690 mmHg 42%
    03:00 +24°C° 0 mm 2 mps 690 mmHg 44%
    04:00 +24°C° 0 mm 2 mps 690 mmHg 45%
    05:00 +24°C° 0 mm 2 mps 690 mmHg 47%
    06:00 +25°C° 0 mm 2 mps 691 mmHg 44%
    07:00 +26°C° 0 mm 2 mps 691 mmHg 41%
    08:00 +27°C° 0 mm 2 mps 692 mmHg 38%
    09:00 +29°C° 0 mm 2 mps 692 mmHg 34%
    10:00 +30°C° 0 mm 3 mps 692 mmHg 29%
    11:00 +33°C° 0 mm 3 mps 692 mmHg 24%
    12:00 +34°C° 0 mm 3 mps 692 mmHg 23%
    13:00 +35°C° 0 mm 3 mps 692 mmHg 21%
    14:00 +36°C° 0 mm 3 mps 692 mmHg 19%
    15:00 +35°C° 0 mm 3 mps 692 mmHg 19%
    16:00 +34°C° 0 mm 3 mps 692 mmHg 20%
    17:00 +34°C° 0 mm 2 mps 692 mmHg 21%
    18:00 +32°C° 0 mm 2 mps 692 mmHg 23%
    19:00 +30°C° 0 mm 2 mps 692 mmHg 25%
    20:00 +29°C° 0 mm 2 mps 693 mmHg 27%
    21:00 +29°C° 0 mm 2 mps 693 mmHg 29%
    22:00 +28°C° 0 mm 2 mps 693 mmHg 31%
    23:00 +27°C° 0 mm 2 mps 692 mmHg 32%

    28 September, Friday

    Time Temperature Precipitation Wind Pressure Humidity
    00:00 +27°C° 0 mm 2 mps 692 mmHg 34%
    01:00 +27°C° 0 mm 2 mps 692 mmHg 35%
    02:00 +26°C° 0 mm 2 mps 692 mmHg 36%
    03:00 +26°C° 0.1 mm 2 mps 692 mmHg 37%
    04:00 +26°C° 0.1 mm 2 mps 692 mmHg 37%
    05:00 +26°C° 0.1 mm 2 mps 692 mmHg 38%
    06:00 +27°C° 0 mm 2 mps 692 mmHg 34%
    07:00 +29°C° 0 mm 2 mps 693 mmHg 30%
    08:00 +30°C° 0 mm 2 mps 694 mmHg 26%
    09:00 +32°C° 0 mm 2 mps 694 mmHg 23%
    10:00 +34°C° 0 mm 2 mps 694 mmHg 21%
    11:00 +35°C° 0 mm 2 mps 694 mmHg 18%
    12:00 +36°C° 0 mm 2 mps 694 mmHg 18%
    13:00 +36°C° 0 mm 2 mps 693 mmHg 17%
    14:00 +37°C° 0 mm 2 mps 693 mmHg 16%
    15:00 +36°C° 0 mm 3 mps 693 mmHg 17%
    16:00 +36°C° 0 mm 3 mps 693 mmHg 18%
    17:00 +35°C° 0 mm 3 mps 692 mmHg 19%
    18:00 +34°C° 0 mm 3 mps 693 mmHg 21%
    19:00 +33°C° 0 mm 3 mps 693 mmHg 23%
    20:00 +31°C° 0 mm 3 mps 693 mmHg 26%
    21:00 +31°C° 0 mm 2 mps 693 mmHg 27%
    22:00 +30°C° 0 mm 2 mps 693 mmHg 29%
    23:00 +29°C° 0 mm 2 mps 693 mmHg 31%

    29 September, Saturday

    Time Temperature Precipitation Wind Pressure Humidity
    00:00 +29°C° 0.1 mm 2 mps 692 mmHg 32%
    01:00 +29°C° 0.1 mm 2 mps 692 mmHg 34%
    02:00 +28°C° 0.1 mm 2 mps 692 mmHg 35%
    03:00 +28°C° 0 mm 2 mps 692 mmHg 36%
    04:00 +28°C° 0 mm 2 mps 692 mmHg 37%
    05:00 +27°C° 0 mm 2 mps 692 mmHg 38%
    06:00 +28°C° 0 mm 2 mps 692 mmHg 36%
    07:00 +30°C° 0 mm 2 mps 693 mmHg 33%
    08:00 +31°C° 0 mm 2 mps 693 mmHg 30%
    09:00 +33°C° 0 mm 3 mps 693 mmHg 27%
    10:00 +34°C° 0 mm 3 mps 693 mmHg 24%
    11:00 +36°C° 0 mm 3 mps 693 mmHg 20%
    12:00 +36°C° 0 mm 3 mps 693 mmHg 20%
    13:00 +37°C° 0 mm 4 mps 692 mmHg 19%
    14:00 +37°C° 0 mm 4 mps 692 mmHg 18%
    15:00 +37°C° 0 mm 4 mps 692 mmHg 19%
    16:00 +36°C° 0 mm 4 mps 692 mmHg 19%
    17:00 +35°C° 0 mm 4 mps 692 mmHg 20%
    18:00 +34°C° 0 mm 4 mps 692 mmHg 22%
    19:00 +33°C° 0 mm 3 mps 692 mmHg 23%
    20:00 +31°C° 0 mm 3 mps 693 mmHg 25%
    21:00 +30°C° 0 mm 2 mps 693 mmHg 27%
    22:00 +29°C° 0 mm 2 mps 692 mmHg 28%
    23:00 +29°C° 0 mm 2 mps 692 mmHg 30%

    30 September, Sunday

    Time Temperature Precipitation Wind Pressure Humidity
    00:00 +28°C° 0 mm 2 mps 692 mmHg 31%
    01:00 +28°C° 0 mm 2 mps 692 mmHg 32%
    02:00 +27°C° 0 mm 2 mps 692 mmHg 33%
    03:00 +27°C° 0 mm 2 mps 692 mmHg 33%
    04:00 +26°C° 0 mm 2 mps 692 mmHg 34%
    05:00 +26°C° 0 mm 2 mps 692 mmHg 35%
    06:00 +27°C° 0 mm 2 mps 693 mmHg 32%
    07:00 +29°C° 0 mm 2 mps 693 mmHg 30%
    08:00 +30°C° 0 mm 2 mps 694 mmHg 28%
    09:00 +31°C° 0 mm 3 mps 694 mmHg 25%
    10:00 +33°C° 0 mm 3 mps 693 mmHg 23%
    11:00 +35°C° 0 mm 3 mps 693 mmHg 20%
    12:00 +35°C° 0 mm 4 mps 693 mmHg 20%
    13:00 +36°C° 0 mm 4 mps 693 mmHg 19%
    14:00 +36°C° 0 mm 4 mps 692 mmHg 19%
    15:00 +35°C° 0 mm 5 mps 692 mmHg 22%
    16:00 +35°C° 0 mm 5 mps 692 mmHg 26%
    17:00 +34°C° 0 mm 5 mps 692 mmHg 29%
    18:00 +32°C° 0.1 mm 4 mps 692 mmHg 37%
    19:00 +30°C° 0.1 mm 4 mps 692 mmHg 44%
    20:00 +29°C° 0.1 mm 3 mps 693 mmHg 52%
    21:00 +28°C° 0 mm 3 mps 692 mmHg 58%
    22:00 +27°C° 0 mm 3 mps 692 mmHg 63%
    23:00 +26°C° 0 mm 3 mps 692 mmHg 68%
    Show more